Weather History for La Veta Pass, CO

Change the Weather History Date:

Sunday, October 26, 2014

  Actual Average (KTAD) Record (KTAD)
Temperature  
Mean Temperature 50 °F 49 °F  
Max Temperature 57 °F 65 °F 84 °F (1979)
Min Temperature 42 °F 33 °F 12 °F (1997)
Degree Days  
Heating Degree Days 16 16  
Month to date heating degree days 308  
Since 1 July heating degree days 418  
Cooling Degree Days 0 0  
Month to date cooling degree days 0  
Year to date cooling degree days 716  
Moisture  
Dew Point 28 °F    
Average Humidity 48    
Maximum Humidity 66    
Minimum Humidity 27    
Precipitation  
Precipitation 0.00 in 0.03 in 0.59 in (1951)
Month to date precipitation 0.74  
Year to date precipitation 12.44  
Sea Level Pressure  
Sea Level Pressure 30.18 in    
Wind  
Wind Speed 14 mph (SSW)    
Max Wind Speed 24 mph    
Max Gust Speed 47 mph    
Visibility 10 miles    
Events Thunderstorm    
T = Trace of Precipitation, MM = Missing Value Source: NWS Daily Summary

Daily Weather History Graph

Daily Weather History Graph

Search for Another Location

Airport:

Trip Planner

Search our weather history database for the weather conditions in past years. The results will help you decide how hot, cold, wet, or windy it might be!

Date:

Astronomy

Oct. 26, 2014 Rise Set
Actual Time 7:19 AM MDT 6:09 PM MDT
Civil Twilight 6:52 AM MDT 6:35 PM MDT
Nautical Twilight 6:22 AM MDT 7:06 PM MDT
Astronomical Twilight 5:51 AM MDT 7:36 PM MDT
Moon 9:58 AM MDT (10/26) 8:25 PM MDT (10/26)
Length of Visible Light 11h 43m
Length of Day
10h 49m
Waxing Crescent, 9% of the Moon is Illuminated
Oct 26
Waxing Crescent
Oct 30
First Quarter
Nov 6
Full
Nov 14
Last Quarter
Nov 22
New

Hourly Weather History & Observations

Time (MDT) Temp. Windchill Dew Point Humidity Pressure Visibility Wind Dir Wind Speed Gust Speed Precip Events Conditions
12:12 AM 44.6 °F 40.7 °F 23.0 °F 43% 30.37 in 10.0 mi South 6.9 mph - N/A   Clear
12:29 AM 44.6 °F 41.4 °F 23.0 °F 43% 30.36 in 10.0 mi SSW 5.8 mph - N/A   Clear
12:49 AM 44.6 °F 39.7 °F 23.0 °F 43% 30.35 in 10.0 mi South 9.2 mph 17.3 mph N/A   Clear
1:07 AM 44.6 °F 38.8 °F 24.8 °F 46% 30.33 in 10.0 mi South 11.5 mph 25.3 mph N/A   Clear
1:32 AM 44.6 °F 39.2 °F 26.6 °F 49% 30.31 in 10.0 mi SSW 10.4 mph 23.0 mph N/A   Clear
1:52 AM 44.6 °F 38.8 °F 26.6 °F 49% 30.29 in 10.0 mi South 11.5 mph 24.2 mph N/A   Clear
2:11 AM 44.6 °F 38.4 °F 28.4 °F 53% 30.28 in 10.0 mi SSW 12.7 mph 27.6 mph N/A   Clear
2:32 AM 44.6 °F 38.4 °F 28.4 °F 53% 30.28 in 10.0 mi SSW 12.7 mph 19.6 mph N/A   Clear
2:51 AM 44.6 °F 39.2 °F 28.4 °F 53% 30.27 in 10.0 mi SSW 10.4 mph 29.9 mph N/A   Clear
3:10 AM 44.6 °F 38.8 °F 26.6 °F 49% 30.25 in 10.0 mi SSW 11.5 mph 26.5 mph N/A   Clear
3:31 AM 44.6 °F 37.8 °F 28.4 °F 53% 30.23 in 10.0 mi SW 15.0 mph 28.8 mph N/A   Clear
3:41 AM 44.6 °F 37.2 °F 28.4 °F 53% 30.23 in 10.0 mi SSW 17.3 mph 34.5 mph N/A   Clear
4:05 AM 42.8 °F 36.2 °F 28.4 °F 57% 30.22 in 10.0 mi SSW 12.7 mph 28.8 mph N/A   Clear
4:31 AM 44.6 °F 35.7 °F 30.2 °F 57% 30.20 in 10.0 mi SSW 24.2 mph 38.0 mph N/A   Clear
4:52 AM 44.6 °F 36.4 °F 30.2 °F 57% 30.18 in 10.0 mi SSW 20.7 mph 36.8 mph N/A Thunderstorm Clear
5:11 AM 44.6 °F 36.1 °F 30.2 °F 57% 30.18 in 10.0 mi SSW 21.9 mph 39.1 mph N/A   Clear
5:29 AM 44.6 °F 36.4 °F 30.2 °F 57% 30.19 in 10.0 mi SSW 20.7 mph 35.7 mph N/A   Clear
5:43 AM 44.6 °F 36.1 °F 30.2 °F 57% 30.18 in 10.0 mi South 21.9 mph 39.1 mph N/A   Clear
6:09 AM 42.8 °F 33.5 °F 30.2 °F 61% 30.18 in 10.0 mi SSW 23.0 mph 39.1 mph N/A Thunderstorm Clear
6:29 AM 42.8 °F 34.5 °F 30.2 °F 61% 30.18 in 10.0 mi SSW 18.4 mph 39.1 mph N/A   Clear
6:50 AM 42.8 °F 34.8 °F 30.2 °F 61% 30.18 in 10.0 mi SSW 17.3 mph 38.0 mph N/A   Clear
7:11 AM 42.8 °F 33.8 °F 30.2 °F 61% 30.17 in 10.0 mi South 21.9 mph 36.8 mph N/A   Clear
7:32 AM 42.8 °F 33.5 °F 30.2 °F 61% 30.16 in 10.0 mi SSW 23.0 mph 40.3 mph N/A   Clear
7:52 AM 42.8 °F 34.0 °F 32.0 °F 66% 30.17 in 10.0 mi SSW 20.7 mph 43.7 mph N/A   Clear
8:11 AM 44.6 °F 36.4 °F 32.0 °F 61% 30.18 in 10.0 mi SSW 20.7 mph 43.7 mph N/A   Clear
8:32 AM 44.6 °F 36.1 °F 32.0 °F 61% 30.19 in 10.0 mi SSW 21.9 mph 41.4 mph N/A   Clear
8:49 AM 44.6 °F 36.1 °F 32.0 °F 61% 30.19 in 10.0 mi South 21.9 mph 40.3 mph N/A   Clear
9:10 AM 44.6 °F 36.9 °F 32.0 °F 61% 30.19 in 10.0 mi SSW 18.4 mph 39.1 mph N/A   Clear
9:30 AM 44.6 °F 36.6 °F 32.0 °F 61% 30.20 in 10.0 mi South 19.6 mph 38.0 mph N/A   Clear
9:49 AM 46.4 °F 38.5 °F 32.0 °F 57% 30.20 in 10.0 mi SSW 21.9 mph 38.0 mph N/A   Clear
10:02 AM 46.4 °F 39.2 °F 32.0 °F 57% 30.20 in 10.0 mi SSW 18.4 mph 47.2 mph N/A   Clear
10:29 AM 48.2 °F - 32.0 °F 54% 30.20 in 10.0 mi SSW 18.4 mph 39.1 mph N/A   Clear
10:50 AM 50.0 °F - 32.0 °F 50% 30.19 in 10.0 mi SSW 17.3 mph 33.4 mph N/A   Clear
11:09 AM 50.0 °F - 32.0 °F 50% 30.19 in 10.0 mi SSW 17.3 mph 38.0 mph N/A   Clear
11:29 AM 51.8 °F - 32.0 °F 47% 30.19 in 10.0 mi SSW 19.6 mph 33.4 mph N/A   Clear
11:52 AM 53.6 °F - 30.2 °F 41% 30.20 in 10.0 mi South 15.0 mph 29.9 mph N/A   Clear
12:11 PM 53.6 °F - 28.4 °F 38% 30.20 in 10.0 mi South 18.4 mph 39.1 mph N/A   Clear
12:28 PM 53.6 °F - 28.4 °F 38% 30.19 in 10.0 mi South 21.9 mph 32.2 mph N/A   Clear
12:47 PM 53.6 °F - 28.4 °F 38% 30.18 in 10.0 mi SSW 15.0 mph 40.3 mph N/A   Clear
1:10 PM 53.6 °F - 26.6 °F 35% 30.18 in 10.0 mi SSW 15.0 mph 31.1 mph N/A   Clear
1:27 PM 55.4 °F - 26.6 °F 33% 30.16 in 10.0 mi SSW 16.1 mph 32.2 mph N/A   Clear
1:52 PM 57.2 °F - 23.0 °F 27% 30.15 in 10.0 mi SSW 13.8 mph 27.6 mph N/A   Clear
2:09 PM 57.2 °F - 24.8 °F 29% 30.14 in 10.0 mi South 19.6 mph 38.0 mph N/A   Clear
2:22 PM 55.4 °F - 23.0 °F 29% 30.14 in 10.0 mi SSW 11.5 mph 26.5 mph N/A   Clear
2:49 PM 57.2 °F - 24.8 °F 29% 30.14 in 10.0 mi South 21.9 mph 34.5 mph N/A   Clear
3:09 PM 55.4 °F - 26.6 °F 33% 30.14 in 10.0 mi South 19.6 mph 34.5 mph N/A   Clear
3:32 PM 55.4 °F - 26.6 °F 33% 30.14 in 10.0 mi South 17.3 mph 34.5 mph N/A   Clear
3:51 PM 53.6 °F - 24.8 °F 33% 30.14 in 10.0 mi South 17.3 mph 33.4 mph N/A   Clear
4:08 PM 51.8 °F - 23.0 °F 33% 30.14 in 10.0 mi South 15.0 mph 32.2 mph N/A   Clear
4:31 PM 53.6 °F - 23.0 °F 30% 30.14 in 10.0 mi South 17.3 mph 29.9 mph N/A   Clear
4:48 PM 53.6 °F - 26.6 °F 35% 30.13 in 10.0 mi South 17.3 mph 27.6 mph N/A   Clear
5:11 PM 51.8 °F - 23.0 °F 33% 30.13 in 10.0 mi SSW 12.7 mph 31.1 mph N/A   Clear
5:32 PM 50.0 °F - 23.0 °F 35% 30.13 in 10.0 mi South 17.3 mph 29.9 mph N/A   Clear
5:48 PM 48.2 °F - 23.0 °F 37% 30.14 in 10.0 mi South 15.0 mph 29.9 mph N/A   Clear
6:01 PM 48.2 °F - 21.2 °F 34% 30.14 in 10.0 mi South 13.8 mph 25.3 mph N/A   Mostly Cloudy
6:32 PM 46.4 °F 40.7 °F 21.2 °F 37% 30.14 in 10.0 mi South 12.7 mph 25.3 mph N/A   Scattered Clouds
6:52 PM 44.6 °F 38.4 °F 21.2 °F 39% 30.14 in 10.0 mi South 12.7 mph 23.0 mph N/A   Clear
7:10 PM 44.6 °F 38.1 °F 21.2 °F 39% 30.15 in 10.0 mi South 13.8 mph 32.2 mph N/A   Clear
7:28 PM 44.6 °F 38.4 °F 23.0 °F 43% 30.14 in 10.0 mi South 12.7 mph 26.5 mph N/A   Clear
7:52 PM 44.6 °F 39.2 °F 23.0 °F 43% 30.14 in 10.0 mi SSW 10.4 mph 21.9 mph N/A   Clear
8:09 PM 44.6 °F 39.7 °F 26.6 °F 49% 30.14 in 10.0 mi SSW 9.2 mph 18.4 mph N/A   Clear
8:32 PM 44.6 °F 39.7 °F 28.4 °F 53% 30.13 in 10.0 mi South 9.2 mph 16.1 mph N/A   Scattered Clouds
8:51 PM 44.6 °F 38.8 °F 30.2 °F 57% 30.12 in 10.0 mi South 11.5 mph 20.7 mph N/A   Scattered Clouds
9:12 PM 44.6 °F 38.4 °F 30.2 °F 57% 30.12 in 10.0 mi South 12.7 mph 21.9 mph N/A   Clear
9:32 PM 44.6 °F 38.1 °F 30.2 °F 57% 30.10 in 10.0 mi South 13.8 mph 28.8 mph N/A Thunderstorm Clear
9:52 PM 44.6 °F 38.1 °F 30.2 °F 57% 30.10 in 10.0 mi South 13.8 mph 25.3 mph N/A   Clear
10:12 PM 44.6 °F 38.1 °F 30.2 °F 57% 30.10 in 10.0 mi South 13.8 mph 25.3 mph N/A   Clear
10:31 PM 44.6 °F 37.2 °F 32.0 °F 61% 30.08 in 10.0 mi South 17.3 mph 33.4 mph N/A   Clear
10:50 PM 44.6 °F 37.4 °F 32.0 °F 61% 30.08 in 10.0 mi South 16.1 mph 27.6 mph N/A   Clear
11:12 PM 42.8 °F 34.8 °F 30.2 °F 61% 30.06 in 10.0 mi South 17.3 mph 31.1 mph N/A   Clear
11:29 PM 42.8 °F 35.1 °F 30.2 °F 61% 30.06 in 10.0 mi South 16.1 mph 28.8 mph N/A   Clear
11:52 PM 42.8 °F 34.8 °F 30.2 °F 61% 30.05 in 10.0 mi South 17.3 mph 33.4 mph N/A   Clear